Location: Little Chesterford
(52.0500°N, 0.1833°E)
Time: 05:18:26
(UTC+00:00)

Spot 2 Rocket - Pass Details

Date: 26 September 2023
Orbit: 755 x 770 km, 98.4° (Epoch: 29 November)

Event Time Altitude Azimuth Distance (km) Brightness Sun altitude
Exits shadow 20:11:40 30° 59° (ENE) 1,348 4.5 -22.0°
Drops below altitude 10° 20:15:56 10° 2° (N) 2,306 6.3 -22.5°
Sets 20:18:28 0° 352° (N) 3,238 7.3 -22.9°
